Total_Precipitation_Accumulation
0.90 1.15 1.01 0.70 0.70 0.62 0.51 0.52 0.41 0.26 0.22 0.38 0.37 0.27 0.22 0.21 0.24 0.25 0.26 0.33 0.33 0.37 0.45 0.52 0.67 0.81 0.96 1.08 1.23 1.40 1.54 1.70 1.92 2.08 2.15 2.14 2.09 1.94 1.87 1.82 1.77 1.75 1.79 1.85
0.99 0.89 0.47 0.36 0.45 0.55 0.59 0.66 0.51 0.36 0.27 0.42 0.40 0.30 0.24 0.22 0.24 0.27 0.28 0.35 0.36 0.37 0.44 0.49 0.61 0.77 0.86 0.96 1.10 1.32 1.51 1.62 1.81 1.96 1.99 2.09 2.07 2.00 1.90 1.83 1.79 1.73 1.73 1.84
0.77 0.50 0.32 0.42 0.56 0.70 0.64 0.59 0.51 0.49 0.42 0.46 0.52 0.45 0.26 0.22 0.21 0.24 0.26 0.31 0.33 0.38 0.41 0.43 0.55 0.70 0.82 0.88 1.00 1.19 1.43 1.60 1.70 1.93 2.20 2.39 2.46 2.29 2.14 1.96 1.82 1.71 1.69 1.73
0.57 0.34 0.37 0.50 0.59 0.68 0.69 0.38 0.43 0.53 0.80 0.85 0.68 0.80 0.31 0.22 0.19 0.22 0.26 0.28 0.29 0.34 0.37 0.39 0.48 0.63 0.74 0.84 1.00 1.17 1.28 1.52 1.75 1.88 2.14 2.38 2.49 2.32 1.99 1.88 1.84 1.80 1.74 1.73
0.71 0.38 0.44 0.52 0.44 0.52 0.57 0.40 0.47 0.60 0.93 1.09 0.72 0.85 0.38 0.24 0.24 0.23 0.26 0.28 0.28 0.33 0.36 0.37 0.43 0.54 0.66 0.83 0.99 1.16 1.26 1.44 1.72 1.92 2.04 2.31 2.47 2.35 2.17 2.05 1.93 1.83 1.80 1.78
0.55 0.40 0.49 0.41 0.32 0.43 0.55 0.66 0.77 0.91 1.48 1.79 0.67 0.66 0.46 0.34 0.35 0.27 0.28 0.32 0.32 0.36 0.41 0.40 0.43 0.53 0.61 0.81 0.94 1.14 1.29 1.35 1.60 1.85 2.02 2.17 2.40 2.50 2.39 2.24 2.13 1.96 1.89 1.83
0.72 0.53 0.51 0.45 0.55 0.62 0.89 1.51 2.21 2.40 2.45 1.48 0.37 0.48 0.52 0.34 0.31 0.35 0.39 0.41 0.40 0.40 0.43 0.45 0.47 0.54 0.57 0.75 0.88 1.06 1.28 1.31 1.41 1.61 1.84 2.04 2.24 2.44 2.53 2.38 2.18 2.07 2.03 1.95
0.90 0.73 0.56 0.56 0.68 0.83 0.92 1.34 1.80 1.68 1.11 0.55 0.33 0.48 0.45 0.35 0.30 0.30 0.35 0.39 0.37 0.38 0.42 0.48 0.50 0.53 0.56 0.63 0.76 0.94 1.17 1.26 1.28 1.40 1.58 1.88 2.15 2.34 2.45 2.49 2.28 2.12 2.01 1.90
1.03 0.68 0.39 0.39 0.42 0.57 0.90 0.99 0.90 1.26 0.90 0.59 0.48 0.43 0.35 0.25 0.21 0.22 0.28 0.34 0.36 0.40 0.44 0.50 0.59 0.60 0.62 0.64 0.69 0.84 1.09 1.22 1.20 1.30 1.41 1.61 1.90 2.18 2.32 2.37 2.37 2.24 2.09 1.96
1.21 0.92 0.47 0.43 0.54 0.62 0.72 0.88 1.04 1.60 1.44 0.87 0.54 0.40 0.49 0.39 0.30 0.25 0.28 0.36 0.40 0.41 0.46 0.51 0.62 0.67 0.68 0.66 0.69 0.82 0.98 1.21 1.24 1.26 1.34 1.45 1.61 1.87 2.12 2.31 2.40 2.26 2.16 2.09
1.10 1.21 0.79 0.70 0.91 0.95 0.84 1.09 1.32 1.35 1.10 0.96 0.73 0.59 0.62 0.53 0.45 0.40 0.35 0.37 0.43 0.44 0.50 0.56 0.62 0.69 0.73 0.71 0.73 0.84 0.96 1.14 1.32 1.36 1.33 1.43 1.55 1.75 1.93 2.03 2.19 2.29 2.27 2.18
1.05 1.36 1.03 0.71 0.64 0.65 0.83 0.98 1.15 1.42 1.08 0.69 0.72 0.66 0.52 0.44 0.41 0.40 0.38 0.37 0.44 0.51 0.58 0.61 0.64 0.66 0.70 0.75 0.78 0.80 0.95 1.10 1.24 1.38 1.41 1.44 1.54 1.75 1.89 1.88 1.91 2.03 2.21 2.21
1.56 1.81 1.46 1.10 0.97 0.85 1.01 0.91 0.92 1.06 1.02 0.78 0.70 0.54 0.38 0.33 0.34 0.35 0.37 0.37 0.42 0.49 0.55 0.59 0.58 0.62 0.71 0.74 0.78 0.79 0.87 1.04 1.20 1.35 1.44 1.43 1.55 1.66 1.73 1.76 1.77 1.78 1.93 2.10
1.77 1.78 1.34 1.23 1.12 1.03 0.99 0.79 0.75 1.09 1.28 0.78 0.50 0.41 0.35 0.33 0.35 0.35 0.37 0.39 0.42 0.45 0.50 0.57 0.62 0.64 0.74 0.78 0.77 0.80 0.86 0.99 1.20 1.36 1.50 1.46 1.54 1.66 1.68 1.67 1.70 1.67 1.74 1.92
1.44 1.44 0.72 0.48 0.42 0.53 0.61 0.57 0.60 0.82 0.81 0.72 0.48 0.39 0.42 0.45 0.49 0.49 0.46 0.42 0.39 0.44 0.48 0.53 0.65 0.74 0.75 0.77 0.77 0.82 0.92 0.97 1.14 1.36 1.54 1.56 1.53 1.60 1.65 1.64 1.72 1.72 1.75 1.82
1.18 1.21 0.64 0.40 0.29 0.38 0.46 0.39 0.44 0.50 0.52 0.49 0.39 0.43 0.40 0.41 0.39 0.43 0.45 0.45 0.45 0.48 0.51 0.51 0.58 0.69 0.75 0.79 0.79 0.84 0.95 0.98 1.07 1.24 1.43 1.53 1.53 1.57 1.61 1.58 1.66 1.73 1.75 1.77
1.14 1.14 1.01 0.60 0.30 0.55 0.74 0.53 0.50 0.51 0.52 0.53 0.53 0.50 0.40 0.39 0.40 0.46 0.49 0.52 0.54 0.57 0.56 0.55 0.60 0.67 0.73 0.80 0.80 0.85 0.93 0.97 1.01 1.13 1.30 1.42 1.45 1.49 1.51 1.52 1.59 1.68 1.73 1.68
1.01 1.14 1.40 0.94 0.68 1.10 0.80 0.44 0.45 0.51 0.56 0.55 0.55 0.48 0.45 0.45 0.47 0.46 0.47 0.55 0.61 0.62 0.61 0.61 0.66 0.68 0.69 0.73 0.80 0.84 0.87 0.92 0.96 1.06 1.21 1.38 1.41 1.42 1.41 1.44 1.49 1.56 1.62 1.64
0.64 1.13 1.67 1.35 0.99 0.69 0.45 0.32 0.46 0.57 0.60 0.55 0.47 0.39 0.37 0.37 0.38 0.40 0.41 0.45 0.55 0.59 0.60 0.62 0.67 0.70 0.67 0.69 0.76 0.82 0.86 0.89 0.95 1.09 1.20 1.33 1.41 1.41 1.37 1.40 1.42 1.43 1.44 1.51
0.74 1.21 1.86 1.57 1.18 0.71 0.47 0.25 0.30 0.51 0.69 0.45 0.39 0.38 0.38 0.40 0.49 0.46 0.40 0.38 0.43 0.46 0.52 0.59 0.62 0.63 0.62 0.65 0.70 0.76 0.84 0.86 0.93 1.10 1.21 1.27 1.33 1.36 1.34 1.34 1.38 1.36 1.31 1.33
1.09 1.66 1.83 1.32 1.08 0.53 0.32 0.21 0.27 0.66 0.76 0.40 0.36 0.38 0.40 0.51 0.59 0.49 0.41 0.39 0.41 0.46 0.50 0.53 0.56 0.57 0.61 0.64 0.67 0.72 0.78 0.88 0.93 1.03 1.10 1.18 1.24 1.28 1.23 1.27 1.28 1.29 1.27 1.26
0.80 1.12 1.14 1.08 1.20 0.65 0.28 0.28 0.58 0.71 0.37 0.30 0.29 0.31 0.35 0.37 0.36 0.35 0.37 0.40 0.43 0.47 0.48 0.50 0.53 0.54 0.57 0.60 0.62 0.66 0.76 0.85 0.89 0.90 0.94 1.05 1.17 1.19 1.14 1.21 1.20 1.17 1.22 1.25
0.64 0.89 0.93 0.88 0.79 0.53 0.39 0.47 0.50 0.43 0.35 0.27 0.28 0.27 0.31 0.34 0.35 0.36 0.39 0.41 0.45 0.48 0.49 0.50 0.51 0.50 0.52 0.57 0.59 0.65 0.73 0.78 0.88 0.87 0.89 0.97 1.07 1.14 1.15 1.17 1.17 1.17 1.17 1.19
0.47 0.51 0.66 0.60 0.46 0.39 0.37 0.33 0.30 0.27 0.30 0.28 0.29 0.31 0.33 0.35 0.36 0.39 0.40 0.43 0.48 0.51 0.52 0.54 0.51 0.51 0.55 0.59 0.61 0.65 0.71 0.76 0.84 0.86 0.88 0.93 1.01 1.12 1.13 1.15 1.16 1.17 1.20 1.27
0.40 0.43 0.51 0.49 0.36 0.29 0.24 0.24 0.26 0.23 0.22 0.22 0.23 0.27 0.32 0.34 0.36 0.39 0.43 0.46 0.51 0.54 0.54 0.53 0.50 0.53 0.56 0.58 0.61 0.63 0.67 0.73 0.82 0.84 0.85 0.89 0.95 1.10 1.14 1.18 1.21 1.23 1.20 1.38
0.31 0.40 0.50 0.45 0.33 0.38 0.30 0.24 0.25 0.26 0.24 0.24 0.26 0.27 0.28 0.32 0.37 0.40 0.46 0.49 0.51 0.52 0.50 0.49 0.48 0.51 0.57 0.58 0.61 0.63 0.66 0.72 0.79 0.83 0.85 0.86 0.92 1.06 1.09 1.13 1.23 1.28 1.26 1.29